星链-37387(STARLINK-37387)

导读

**STARLINK-37387(NORAD编号68973)**是美国SpaceX公司星链(Starlink)低轨卫星互联网星座的一员,属于星链大规模组网中的最新批次卫星之一。作为近地轨道(LEO)通信卫星,它运行于约550公里高度轨道,参与全球高速低延迟互联网覆盖,主要服务偏远地区、移动载体及应急通信场景。依托SpaceX可重复火箭技术实现批量发射部署,是星链计划持续扩张星座规模、提升全球网络覆盖能力的组成部分,目前处于在轨工作状态。

基本信息
目录编号:
68973
目录名称:
STARLINK-37387
国际标识:
2026-099Y
轨道中心:
EARTH
卫星名称:
星链-37387
卫星全名:
星链-37387(STARLINK-37387)
卫星状态:
在轨 (已飞行133 天)
发射日期:
2026-05-01 UTC
国别 :
美国 (US)
星等 :
--
该卫星已列入 空间交会检测服务 Space Conjunction Data Service (SCDS) ,当前飞行风险评估等级: 高风险
轨道信息
数据来源 国际轨道数据
星历时间: 2026-09-10T19:46:13+0800
1天前
查看轨道信息
半长轴: 6840.874km
偏心率: 0.0001263
轨道倾角: 53.158°
近地点辐角 101.075°
升交点赤经 122.172°
平近点角 259.039°
近地点: 461.872km
远地点: 463.602km
周期: 93.848分钟
每日圈数: 15.343888
详细信息
固有亮度:
5
最大亮度:
2.5
卫星平台:
Starlink V1.0
覆盖范围:
全球
运营商:
太空探索技术公司
运营商所在国:
美国
制造商(研发单位):
太空探索技术公司
制造商所在国:
美国
使用方式:
暂无
卫星简介
Starlink 计划是 SpaceX 推出的全球卫星互联网项目,通过发射低轨道卫星,为全球尤其是偏远地区提供高速、低延迟的互联网服务。自 2019 年起,Starlink 已部署数千颗卫星,旨在缩小全球数字鸿沟,推动互联网普及。该项目还为军事、航空等行业提供通信支持,带来广泛经济效益。
2D轨道图
3D轨道图
轨道高度分析图
轨道倾角分析图
轨道综合分析图
查看轨道综合分析图
交会数据列表
事件ID 空间交会对象 最接近时刻(TCA) 交会距离 交会风险概率(CRP) 交会风险指数(CRI) 操作
CDM_260911-171106-897306-924821
2026-09-11T
17:11:37+0000
0.471 km
远距离
1.606769E-4 高风险 0.79
CDM_260913-042106-462006-897321
2026-09-13T
04:21:18+0000
0.673 km
远距离
5.941481E-5 中风险 0.7
CDM_260912-220606-897306-924821
2026-09-12T
22:06:45+0000
0.720 km
远距离
5.063587E-5 中风险 0.69
CDM_260912-234006-897306-924821
2026-09-12T
23:40:32+0000
1.117 km
极远距离
1.168186E-5 中风险 0.56
CDM_260911-153706-897306-924821
2026-09-11T
15:37:50+0000
1.254 km
极远距离
7.831943E-6 低风险 0.53
CDM_260911-184506-897306-924821
2026-09-11T
18:45:25+0000
1.359 km
极远距离
5.96023E-6 低风险 0.51
CDM_260912-203206-897306-924821
2026-09-12T
20:32:57+0000
1.515 km
极远距离
4.181984E-6 低风险 0.47
CDM_260912-203001-815206-897322
2026-09-12T
20:30:23+0000
1.991 km
极远距离
2.47744E-6 低风险 0.43
CDM_260905-165605-829906-897322
AETHER-2 (58299)
2026-09-05T
16:56:04+0000
2.209 km
极远距离
2.246812E-6 低风险 0.42
CDM_260913-011406-897306-924821
2026-09-13T
01:14:20+0000
2.109 km
极远距离
1.679663E-6 低风险 0.4
与全量物体交会距离演化趋势
与全量物体交会风险概率演化趋势